Location: Unspecified
(0.0000°N, 0.0000°E)
Time: 10:53:03
(UTC+02:00)

Iridium 15 - Visible Passes

Search period start: 25 June 2016 00:00
Search period end: 05 July 2016 00:00
Orbit: 776 x 779 km, 86.4° (Epoch: 24 June)

Date Brightness Start Highest point End Pass type
(mag) Time Alt. Az. Time Alt. Az. Time Alt. Az.
25 Jun 8.8 06:04:06 10° ENE 06:06:52 14° E 06:09:38 10° ESE visible
26 Jun 6.0 07:08:37 10° N 07:13:47 70° W 07:18:59 10° S visible
27 Jun 6.8 06:35:15 10° NNE 06:40:18 52° E 06:45:22 10° SSE visible
28 Jun 8.2 06:02:44 10° NE 06:06:49 24° E 06:10:55 10° SE visible
29 Jun 6.4 07:08:51 10° NNW 07:13:44 42° W 07:18:39 10° SSW visible
30 Jun 6.0 06:35:03 10° N 06:40:15 85° E 06:45:29 10° S visible
01 Jul 7.3 06:01:58 10° NNE 06:06:46 38° E 06:11:34 10° SSE visible
02 Jul 8.5 05:29:57 10° NE 05:33:17 17° E 05:36:36 10° SE visible
02 Jul 7.0 07:09:24 10° NW 07:13:41 26° W 07:18:01 10° SW visible
03 Jul 6.0 06:35:05 10° N 06:40:12 59° W 06:44:05 17° SSW visible
04 Jul 6.4 06:01:34 10° N 06:06:42 62° E 06:09:17 29° SSE visible
